Stündliche Wetter Abramovka

Heute, 21 Juni, Montag

Zeit Temperatur Niederschläge Wind Luftdruck Luftfeuchtigkeit
00:00 +13°C° 0 mm 1 m/S 745 mmHg 94%
01:00 +13°C° 0 mm 1 m/S 745 mmHg 94%
02:00 +13°C° 0 mm 1 m/S 745 mmHg 95%
03:00 +13°C° 0 mm 1 m/S 745 mmHg 95%
04:00 +13°C° 0.1 mm 1 m/S 746 mmHg 95%
05:00 +12°C° 0.1 mm 0 m/S 746 mmHg 95%
06:00 +12°C° 0.1 mm 0 m/S 746 mmHg 95%
07:00 +12°C° 0.1 mm 0 m/S 746 mmHg 94%
08:00 +12°C° 0.1 mm 0 m/S 747 mmHg 93%
09:00 +14°C° 0.1 mm 1 m/S 747 mmHg 92%
10:00 +15°C° 0 mm 1 m/S 747 mmHg 88%
11:00 +15°C° 0 mm 1 m/S 747 mmHg 85%
12:00 +16°C° 0 mm 1 m/S 747 mmHg 82%
13:00 +18°C° 0.1 mm 1 m/S 747 mmHg 77%
14:00 +18°C° 0.1 mm 2 m/S 747 mmHg 73%
15:00 +19°C° 0.1 mm 3 m/S 746 mmHg 69%
16:00 +19°C° 0.1 mm 2 m/S 747 mmHg 70%
17:00 +18°C° 0.1 mm 2 m/S 747 mmHg 71%
18:00 +18°C° 0.1 mm 2 m/S 747 mmHg 72%
19:00 +16°C° 0 mm 2 m/S 747 mmHg 76%
20:00 +15°C° 0 mm 1 m/S 748 mmHg 80%
21:00 +12°C° 0 mm 0 m/S 748 mmHg 84%
22:00 +12°C° 0 mm 0 m/S 748 mmHg 85%
23:00 +11°C° 0 mm 0 m/S 748 mmHg 86%

Morgen, 22 Juni, Dienstag

Zeit Temperatur Niederschläge Wind Luftdruck Luftfeuchtigkeit
00:00 +11°C° 0 mm 0 m/S 748 mmHg 88%
01:00 +11°C° 0 mm 0 m/S 748 mmHg 88%
02:00 +11°C° 0 mm 0 m/S 749 mmHg 89%
03:00 +10°C° 0 mm 0 m/S 749 mmHg 90%
04:00 +11°C° 0 mm 0 m/S 749 mmHg 89%
05:00 +11°C° 0 mm 0 m/S 749 mmHg 88%
06:00 +12°C° 0 mm 0 m/S 749 mmHg 87%
07:00 +14°C° 0 mm 0 m/S 750 mmHg 80%
08:00 +15°C° 0 mm 0 m/S 750 mmHg 74%
09:00 +19°C° 0 mm 1 m/S 750 mmHg 67%
10:00 +21°C° 0 mm 1 m/S 749 mmHg 63%
11:00 +21°C° 0 mm 2 m/S 749 mmHg 58%
12:00 +23°C° 0 mm 2 m/S 749 mmHg 53%
13:00 +23°C° 0 mm 2 m/S 749 mmHg 53%
14:00 +24°C° 0 mm 2 m/S 749 mmHg 53%
15:00 +24°C° 0 mm 2 m/S 748 mmHg 52%
16:00 +24°C° 0 mm 2 m/S 748 mmHg 57%
17:00 +24°C° 0 mm 2 m/S 748 mmHg 62%
18:00 +23°C° 0 mm 1 m/S 748 mmHg 67%
19:00 +21°C° 0 mm 1 m/S 749 mmHg 72%
20:00 +19°C° 0 mm 1 m/S 749 mmHg 77%
21:00 +16°C° 0 mm 1 m/S 749 mmHg 83%
22:00 +15°C° 0 mm 1 m/S 749 mmHg 85%
23:00 +14°C° 0 mm 1 m/S 749 mmHg 88%

übermorgen, 23 Juni, Mittwoch

Zeit Temperatur Niederschläge Wind Luftdruck Luftfeuchtigkeit
00:00 +14°C° 0 mm 2 m/S 750 mmHg 91%
01:00 +13°C° 0 mm 1 m/S 749 mmHg 91%
02:00 +13°C° 0 mm 1 m/S 749 mmHg 92%
03:00 +12°C° 0 mm 1 m/S 749 mmHg 92%
04:00 +13°C° 0 mm 1 m/S 750 mmHg 90%
05:00 +14°C° 0 mm 1 m/S 750 mmHg 89%
06:00 +14°C° 0 mm 1 m/S 750 mmHg 87%
07:00 +16°C° 0 mm 1 m/S 750 mmHg 81%
08:00 +19°C° 0 mm 1 m/S 750 mmHg 74%
09:00 +22°C° 0 mm 1 m/S 750 mmHg 68%
10:00 +23°C° 0 mm 1 m/S 750 mmHg 63%
11:00 +25°C° 0 mm 1 m/S 749 mmHg 59%
12:00 +26°C° 0 mm 1 m/S 749 mmHg 54%
13:00 +27°C° 0 mm 1 m/S 749 mmHg 52%
14:00 +27°C° 0 mm 2 m/S 749 mmHg 50%
15:00 +27°C° 0 mm 2 m/S 748 mmHg 49%
16:00 +27°C° 0 mm 1 m/S 748 mmHg 54%
17:00 +27°C° 0 mm 1 m/S 748 mmHg 59%
18:00 +26°C° 0 mm 1 m/S 748 mmHg 65%
19:00 +23°C° 0 mm 1 m/S 748 mmHg 71%
20:00 +19°C° 0 mm 2 m/S 748 mmHg 77%
21:00 +16°C° 0 mm 3 m/S 749 mmHg 83%
22:00 +16°C° 0 mm 3 m/S 749 mmHg 83%
23:00 +15°C° 0 mm 2 m/S 749 mmHg 84%

24 Juni, Donnerstag

Zeit Temperatur Niederschläge Wind Luftdruck Luftfeuchtigkeit
00:00 +14°C° 0 mm 2 m/S 749 mmHg 85%
01:00 +14°C° 0 mm 2 m/S 749 mmHg 85%
02:00 +14°C° 0 mm 2 m/S 748 mmHg 86%
03:00 +13°C° 0 mm 2 m/S 748 mmHg 87%
04:00 +14°C° 0 mm 2 m/S 748 mmHg 86%
05:00 +14°C° 0 mm 2 m/S 749 mmHg 85%
06:00 +15°C° 0 mm 2 m/S 749 mmHg 84%
07:00 +17°C° 0 mm 2 m/S 749 mmHg 78%
08:00 +19°C° 0 mm 2 m/S 749 mmHg 72%
09:00 +21°C° 0 mm 2 m/S 748 mmHg 66%
10:00 +24°C° 0 mm 2 m/S 748 mmHg 61%
11:00 +25°C° 0 mm 2 m/S 748 mmHg 57%
12:00 +27°C° 0 mm 2 m/S 748 mmHg 53%
13:00 +28°C° 0 mm 2 m/S 747 mmHg 51%
14:00 +28°C° 0 mm 2 m/S 747 mmHg 48%
15:00 +29°C° 0 mm 2 m/S 746 mmHg 46%
16:00 +27°C° 0 mm 2 m/S 747 mmHg 54%
17:00 +25°C° 0 mm 3 m/S 747 mmHg 62%
18:00 +24°C° 0 mm 3 m/S 747 mmHg 70%
19:00 +21°C° 0 mm 3 m/S 747 mmHg 72%
20:00 +19°C° 0 mm 3 m/S 747 mmHg 75%
21:00 +18°C° 0 mm 3 m/S 747 mmHg 78%
22:00 +17°C° 0 mm 3 m/S 747 mmHg 76%
23:00 +17°C° 0 mm 3 m/S 748 mmHg 75%

25 Juni, Freitag

Zeit Temperatur Niederschläge Wind Luftdruck Luftfeuchtigkeit
00:00 +17°C° 0 mm 3 m/S 748 mmHg 74%
01:00 +16°C° 0 mm 3 m/S 748 mmHg 79%
02:00 +14°C° 0 mm 3 m/S 747 mmHg 84%
03:00 +14°C° 0 mm 3 m/S 747 mmHg 89%
04:00 +14°C° 0 mm 3 m/S 747 mmHg 89%
05:00 +16°C° 0 mm 3 m/S 747 mmHg 88%
06:00 +16°C° 0 mm 3 m/S 747 mmHg 88%
07:00 +18°C° 0 mm 3 m/S 748 mmHg 81%
08:00 +20°C° 0 mm 3 m/S 748 mmHg 74%
09:00 +22°C° 0 mm 3 m/S 748 mmHg 67%
10:00 +24°C° 0 mm 3 m/S 748 mmHg 63%
11:00 +25°C° 0 mm 2 m/S 748 mmHg 60%
12:00 +27°C° 0 mm 1 m/S 747 mmHg 57%
13:00 +27°C° 0 mm 2 m/S 747 mmHg 57%
14:00 +27°C° 0 mm 2 m/S 747 mmHg 58%
15:00 +28°C° 0 mm 3 m/S 747 mmHg 59%
16:00 +26°C° 0 mm 3 m/S 747 mmHg 62%
17:00 +25°C° 0 mm 4 m/S 747 mmHg 65%
18:00 +23°C° 0 mm 5 m/S 746 mmHg 68%
19:00 +21°C° 0 mm 4 m/S 747 mmHg 72%
20:00 +19°C° 0 mm 4 m/S 747 mmHg 75%
21:00 +18°C° 0 mm 4 m/S 747 mmHg 79%
22:00 +17°C° 0 mm 4 m/S 747 mmHg 81%
23:00 +16°C° 0 mm 3 m/S 748 mmHg 82%

26 Juni, Samstag

Zeit Temperatur Niederschläge Wind Luftdruck Luftfeuchtigkeit
00:00 +16°C° 0 mm 3 m/S 748 mmHg 83%
01:00 +14°C° 0 mm 3 m/S 748 mmHg 85%
02:00 +14°C° 0 mm 3 m/S 748 mmHg 86%
03:00 +15°C° 0 mm 2 m/S 747 mmHg 87%
04:00 +15°C° 0 mm 2 m/S 748 mmHg 86%
05:00 +16°C° 0 mm 2 m/S 748 mmHg 85%
06:00 +16°C° 0 mm 2 m/S 748 mmHg 84%
07:00 +18°C° 0 mm 3 m/S 748 mmHg 76%
08:00 +21°C° 0 mm 4 m/S 748 mmHg 68%
09:00 +23°C° 0 mm 4 m/S 748 mmHg 60%
10:00 +25°C° 0 mm 4 m/S 748 mmHg 57%
11:00 +27°C° 0 mm 4 m/S 748 mmHg 53%
12:00 +28°C° 0 mm 4 m/S 748 mmHg 49%
13:00 +29°C° 0 mm 5 m/S 747 mmHg 48%
14:00 +29°C° 0 mm 5 m/S 747 mmHg 47%
15:00 +30°C° 0 mm 5 m/S 747 mmHg 46%
16:00 +28°C° 0 mm 5 m/S 747 mmHg 51%
17:00 +26°C° 0 mm 5 m/S 747 mmHg 56%
18:00 +25°C° 0 mm 4 m/S 747 mmHg 61%
19:00 +22°C° 0 mm 4 m/S 747 mmHg 64%
20:00 +21°C° 0 mm 4 m/S 747 mmHg 66%
21:00 +19°C° 0 mm 4 m/S 747 mmHg 69%
22:00 +18°C° 0 mm 4 m/S 747 mmHg 71%
23:00 +18°C° 0 mm 4 m/S 747 mmHg 74%
Mehr zeigen

Wir brauchen deine Erlaubnis

Meteoprog und unser Service Anbieter werden persönliche Daten aufbewahren, so wie Cookies, Geräte Bezeichnung oder ähnliche Technologien von deinem Gerät und Prozess, so wie Persönliche Daten Inhalte und Werbungen, genauso wie social Media und den Verkehr zu analysieren.

  • Aufbewahrung und/oder Zugang zu deiner Geräte Informationen.

    Cookies, Geräte Bezeichnung oder andere Informationen, können aufbewahrt oder Zugang zu deinem Gerät erhalten, für den Grund, der oben angegeben wird.

  • Personalisierte Werbung und Inhalte, Messungen, Einblick in das Publikum und Produkt Entwicklung.

    Werbungen und Inhalte können personalisiert werden, basierend auf ein Profil. Mehr Daten können besser personalisierte Werbungen und Inhalte hinzufügen. Werbung und Inhalte können gezeigt und gemessen werden. Einblicke über das Publikum, welche die Werbung gesehen haben und den Inhalt, können abgeleitet werden. So wie Daten können genutzt werden, um es zu verbessern oder die Benutzer Erfahrung zu verbessern das System und die Software.

Wenn du “Ich stimme zu” klickst, erlaubst du uns, die Cookies zu benutzen die Geräte Bezeichnung, den Web oder ähnliche Technologien zu benutzen. Deine Settings, können in deinem Gerät bei deinem Browser geändert werden.

Für den bestimmten Zweck, berechtigten Interessen beruhen darauf, mehr als auf den Inhalt. Du kannst mehr darüber in unseren Privaten und Cookie Politik lesen.